Tracking 25620 objects as of 18-May-2022
HD Live streaming from Space Station
objects crossing your sky now

COSMOS 2251 DEB

Track COSMOS 2251 DEB now!
10-day predictions


NORAD ID: 34465
Int'l Code: 1993-036TJ
Perigee: 650.3 km
Apogee: 777.1 km
Inclination: 74.1 °
Period: 98.9 minutes
Semi major axis: 7084 km
RCS: 0.028 m2 (small)
Launch date: June 16, 1993
Source: Commonwealth of Independent States (former USSR) (CIS)
Launch site: PLESETSK MISSILE AND SPACE COMPLEX (PKMTR)

Note: This is SATELLITE DEBRIS
aabbcc
Your satellite tracking list
Your tracking list is empty




NASA's NSSDC Master Catalog

Two Line Element Set (TLE):
1 34465U 93036TJ  22138.38717621  .00011711  00000-0  25303-2 0  9990
2 34465  74.0770  21.1461 0089491  15.6977 344.6928 14.55871761698093
Source of the keplerian elements: AFSPC